KINEIS-5A

Last updated on Thu Oct 23 2025 00:02:50 GMT+0000 (Coordinated Universal Time)

1 62084U 24219D 25295.48392758 .00001433 00000+0 23454-3 0 9998 2 62084 97.9852 94.6363 0002078 15.7890 344.3382 14.72287778 48798
UTC large
Height (km)
Speed (km/s)
/
Latitude / Longitude
Inclination (degrees)
Orbital Period (minutes)
Azimuth
Elevation
Range (km)
Doppler Factor

Next 0 passes for location: London (51.5072 / 0.1276)

Sorry there are no passes over London.